Galax, VA

1:27 PM EDT on August 20, 2017 (GMT -0400)
Twin County

Weather History for KHLX - January, 2013

Change the Weather History Date:

Tuesday, January 1, 2013

  Actual Average (KBLF) Record (KBLF)
Temperature  
Mean Temperature 45 °F -  
Max Temperature 51 °F 42 °F 72 °F (1985)
Min Temperature 39 °F 27 °F 0 °F (1977)
Degree Days  
Heating Degree Days 20    
Moisture  
Dew Point 37 °F    
Average Humidity 76    
Maximum Humidity 93    
Minimum Humidity 26    
Precipitation  
Precipitation 0.12 in - - ()
Sea Level Pressure  
Sea Level Pressure 29.99 in    
Wind  
Wind Speed 7 mph (West)    
Max Wind Speed 18 mph    
Max Gust Speed 26 mph    
Visibility 10 miles    
Events Rain    
Averages and records for this station are not official NWS values.
T = Trace of Precipitation, MM = Missing Value Source: NWS Daily Summary

Daily Weather History Graph

Daily Weather History Graph

Search for Another Location

Airport or City:

Trip Planner

Search our weather history database for the weather conditions in past years. The results will help you decide how hot, cold, wet, or windy it might be!

Date:

Astronomy

Jan. 01, 2013 Rise Set
Actual Time 7:36 AM EST 5:18 PM EST
Civil Twilight 7:07 AM EST 5:47 PM EST
Nautical Twilight 6:34 AM EST 6:19 PM EST
Astronomical Twilight 6:03 AM EST 6:50 PM EST
Moon 9:40 PM EST (1/1) 9:54 AM EST (1/1)
Length of Visible Light 10h 39m
Length of Day
9h 42m
Waning Gibbous, 83% of the Moon is Illuminated
Jan 1
Waning Gibbous
Jan 4
Last Quarter
Jan 11
New
Jan 18
First Quarter
Jan 26
Full

Hourly Weather History & Observations

Time (EST) Temp. Windchill Dew Point Humidity Pressure Visibility Wind Dir Wind Speed Gust Speed Precip Events Conditions
12:15 AM 39.2 °F 37.0 °F 8.6 °F 28% 30.07 in 10.0 mi NNW 3.5 mph - N/A   Clear
12:35 AM 41.0 °F 38.0 °F 8.6 °F 26% 30.07 in 10.0 mi WNW 4.6 mph - N/A   Clear
12:55 AM 41.0 °F 37.1 °F 12.2 °F 31% 30.05 in 10.0 mi NNW 5.8 mph - N/A   Clear
1:15 AM 41.0 °F 35.8 °F 10.4 °F 29% 30.03 in 10.0 mi NW 8.1 mph - N/A   Clear
1:35 AM 42.8 °F 37.0 °F 15.8 °F 34% 30.04 in 10.0 mi WNW 10.4 mph - N/A   Clear
1:55 AM 42.8 °F 36.2 °F 15.8 °F 34% 30.03 in 10.0 mi WNW 12.7 mph 17.3 mph N/A   Scattered Clouds
2:15 AM 42.8 °F 37.0 °F 15.8 °F 34% 30.05 in 10.0 mi West 10.4 mph 18.4 mph N/A   Scattered Clouds
2:35 AM 42.8 °F 35.8 °F 15.8 °F 34% 30.04 in 10.0 mi West 13.8 mph 18.4 mph N/A   Scattered Clouds
2:55 AM 42.8 °F 35.8 °F 17.6 °F 36% 30.04 in 10.0 mi WNW 13.8 mph 21.9 mph N/A   Mostly Cloudy
3:15 AM 42.8 °F 37.0 °F 19.4 °F 39% 30.04 in 10.0 mi West 10.4 mph - N/A   Mostly Cloudy
3:35 AM 42.8 °F 37.0 °F 21.2 °F 42% 30.03 in 10.0 mi WNW 10.4 mph 17.3 mph N/A   Scattered Clouds
3:55 AM 42.8 °F 37.0 °F 24.8 °F 49% 30.04 in 10.0 mi West 10.4 mph 19.6 mph N/A   Clear
4:15 AM 42.8 °F 34.5 °F 26.6 °F 53% 30.03 in 10.0 mi WNW 18.4 mph 26.5 mph N/A   Scattered Clouds
4:35 AM 42.8 °F 36.2 °F 26.6 °F 53% 30.03 in 10.0 mi West 12.7 mph 26.5 mph N/A   Mostly Cloudy
4:55 AM 42.8 °F 37.5 °F 26.6 °F 53% 30.04 in 10.0 mi WNW 9.2 mph - N/A   Overcast
5:15 AM 42.8 °F 39.3 °F 28.4 °F 57% 30.02 in 10.0 mi NW 5.8 mph - N/A   Overcast
5:35 AM 42.8 °F 40.1 °F 30.2 °F 61% 30.01 in 10.0 mi WSW 4.6 mph - N/A   Mostly Cloudy
5:55 AM 42.8 °F 38.0 °F 35.6 °F 76% 30.01 in 10.0 mi WNW 8.1 mph - N/A   Mostly Cloudy
6:15 AM 42.8 °F 40.1 °F 35.6 °F 76% 30.01 in 10.0 mi SW 4.6 mph - N/A   Overcast
6:35 AM 41.0 °F - 35.6 °F 81% 30.01 in 10.0 mi Calm Calm - N/A   Mostly Cloudy
6:55 AM 41.0 °F - 35.6 °F 81% 30.02 in 10.0 mi Calm Calm - N/A   Scattered Clouds
7:15 AM 41.0 °F - 35.6 °F 81% 30.03 in 10.0 mi Calm Calm - N/A   Scattered Clouds
7:35 AM 42.8 °F - 35.6 °F 76% 30.02 in 10.0 mi Calm Calm - N/A   Mostly Cloudy
7:55 AM 41.0 °F - 35.6 °F 81% 30.04 in 10.0 mi Calm Calm - N/A   Overcast
8:15 AM 42.8 °F 40.1 °F 35.6 °F 76% 30.01 in 10.0 mi South 4.6 mph - N/A   Mostly Cloudy
8:35 AM 42.8 °F 41.1 °F 37.4 °F 81% 30.02 in 10.0 mi WSW 3.5 mph - N/A   Scattered Clouds
8:55 AM 44.6 °F 42.2 °F 39.2 °F 81% 30.01 in 10.0 mi South 4.6 mph - N/A   Scattered Clouds
9:15 AM 46.4 °F 41.5 °F 42.8 °F 87% 30.00 in 10.0 mi SSW 10.4 mph - N/A   Clear
9:35 AM 46.4 °F - 42.8 °F 87% 30.03 in 10.0 mi Calm Calm - N/A   Clear
10:15 AM 46.4 °F 45.2 °F 42.8 °F 87% 29.98 in 10.0 mi SSE 3.5 mph - N/A   Clear
10:35 AM 48.2 °F - 42.8 °F 82% 30.02 in 10.0 mi NW 8.1 mph - N/A   Clear
10:55 AM 46.4 °F - 42.8 °F 87% 29.99 in 10.0 mi Calm Calm - N/A   Clear
11:15 AM 48.2 °F - 44.6 °F 87% 30.02 in 10.0 mi NNW 10.4 mph - N/A   Scattered Clouds
11:35 AM 48.2 °F - 44.6 °F 87% 30.00 in 10.0 mi NW 13.8 mph - N/A   Scattered Clouds
11:55 AM 48.2 °F - 44.6 °F 87% 29.98 in 10.0 mi West 8.1 mph - N/A   Clear
12:15 PM 48.2 °F - 44.6 °F 87% 29.94 in 10.0 mi South 4.6 mph - N/A   Clear
12:35 PM 48.2 °F - 44.6 °F 87% 29.94 in 10.0 mi WSW 3.5 mph - N/A   Clear
12:55 PM 46.4 °F 40.4 °F 44.6 °F 93% 29.96 in 10.0 mi NW 13.8 mph 24.2 mph N/A   Clear
1:15 PM 46.4 °F 40.4 °F 44.6 °F 93% 29.94 in 10.0 mi WNW 13.8 mph 19.6 mph N/A   Scattered Clouds
1:35 PM 48.2 °F - 44.6 °F 87% 29.91 in 10.0 mi WSW 11.5 mph 17.3 mph N/A   Scattered Clouds
1:55 PM 48.2 °F - 44.6 °F 87% 29.93 in 10.0 mi West 8.1 mph - N/A   Scattered Clouds
2:15 PM 50.0 °F - 44.6 °F 82% 29.92 in 10.0 mi WSW 8.1 mph - N/A   Scattered Clouds
2:35 PM 50.0 °F - 44.6 °F 82% 29.92 in 10.0 mi SSW 4.6 mph - N/A   Clear
2:55 PM 50.0 °F - 44.6 °F 82% 29.92 in 10.0 mi SSW 11.5 mph - N/A   Clear
3:15 PM 51.8 °F - 44.6 °F 76% 29.90 in 10.0 mi SSW 11.5 mph - N/A   Clear
3:35 PM 51.8 °F - 44.6 °F 76% 29.92 in 10.0 mi WSW 5.8 mph - N/A   Clear
3:55 PM 51.8 °F - 44.6 °F 76% 29.94 in 10.0 mi West 5.8 mph - N/A   Clear
4:15 PM 48.2 °F - 44.6 °F 87% 29.94 in 10.0 mi WNW 9.2 mph - N/A   Clear
4:35 PM 48.2 °F - 44.6 °F 87% 29.95 in 10.0 mi WNW 5.8 mph - N/A   Clear
4:55 PM 48.2 °F - 44.6 °F 87% 29.94 in 10.0 mi NNW 6.9 mph - N/A   Scattered Clouds
5:15 PM 46.4 °F 41.9 °F 44.6 °F 93% 29.96 in 10.0 mi NW 9.2 mph - N/A   Scattered Clouds
5:35 PM 46.4 °F 41.9 °F 44.6 °F 93% 29.95 in 10.0 mi WNW 9.2 mph - N/A   Clear
5:55 PM 46.4 °F 42.4 °F 44.6 °F 93% 29.95 in 10.0 mi West 8.1 mph - N/A   Clear
6:15 PM 46.4 °F 42.4 °F 44.6 °F 93% 29.96 in 10.0 mi WNW 8.1 mph - N/A   Clear
6:35 PM 46.4 °F 41.9 °F 44.6 °F 93% 29.97 in 10.0 mi WNW 9.2 mph - N/A   Scattered Clouds
6:55 PM 46.4 °F 40.1 °F 44.6 °F 93% 29.98 in 10.0 mi WNW 15.0 mph 23.0 mph N/A   Overcast
7:15 PM 46.4 °F 41.5 °F 42.8 °F 87% 29.98 in 7.0 mi WNW 10.4 mph - N/A   Overcast
7:35 PM 44.6 °F - 42.8 °F 93% 29.97 in 7.0 mi Calm Calm - N/A   Overcast
7:55 PM 44.6 °F 41.4 °F 42.8 °F 93% 29.96 in 10.0 mi West 5.8 mph - N/A   Light Drizzle
8:15 PM 44.6 °F 41.4 °F 42.8 °F 93% 29.97 in 10.0 mi WNW 5.8 mph - N/A   Scattered Clouds
8:35 PM 44.6 °F 43.1 °F 42.8 °F 93% 29.97 in 10.0 mi SW 3.5 mph - N/A Rain Rain
8:55 PM 44.6 °F - 42.8 °F 93% 29.97 in 10.0 mi Calm Calm - N/A Rain Light Rain
9:15 PM 44.6 °F - 42.8 °F 93% 29.97 in 7.0 mi Calm Calm - 0.01 in Rain Light Rain
9:35 PM 44.6 °F - 42.8 °F 93% 29.97 in 5.0 mi Calm Calm - 0.04 in Rain Light Rain
9:55 PM 44.6 °F 42.2 °F 42.8 °F 93% 29.97 in 10.0 mi SSW 4.6 mph - 0.01 in Rain Light Rain
10:15 PM 44.6 °F 43.1 °F 42.8 °F 93% 29.96 in 10.0 mi SSW 3.5 mph - 0.01 in   Light Drizzle
10:35 PM 44.6 °F 43.1 °F 42.8 °F 93% 29.96 in 10.0 mi South 3.5 mph - 0.02 in   Light Drizzle
10:55 PM 44.6 °F 43.1 °F 42.8 °F 93% 29.96 in 7.0 mi SSW 3.5 mph - 0.01 in Rain Light Rain
11:15 PM 44.6 °F 43.1 °F 42.8 °F 93% 29.96 in 7.0 mi SSW 3.5 mph - 0.05 in Rain Light Rain
11:35 PM 44.6 °F 42.2 °F 42.8 °F 93% 29.95 in 10.0 mi SSW 4.6 mph - 0.06 in Rain Light Rain
11:55 PM 44.6 °F - 42.8 °F 93% 29.95 in 10.0 mi Calm Calm - N/A   Overcast